| time (UTC) | temp C | wind direction | speed KPH | gust KPH | rain 1hr cm | rain 24hr cm | rain mn cm | humidity % | barometer mb |
| 20260510220524 | 20 | 13 | 14.5 | 35.4 | 0.00 | 0.00 | 0.00 | 35 | 1024.7 |
| 20260510220036 | 20 | 12 | 17.7 | 32.2 | 0.00 | 0.00 | 0.00 | 36 | 1024.7 |
| 20260510215523 | 20 | 345 | 16.1 | 37.0 | 0.00 | 0.00 | 0.00 | 34 | 1024.7 |
| 20260510215024 | 20 | 332 | 20.9 | 37.0 | 0.00 | 0.00 | 0.00 | 34 | 1024.7 |
| 20260510214538 | 20 | 360 | 14.5 | 29.0 | 0.00 | 0.00 | 0.00 | 32 | 1024.5 |
| 20260510214027 | 20 | 350 | 14.5 | 32.2 | 0.00 | 0.00 | 0.00 | 33 | 1024.4 |
| 20260510213524 | 20 | 316 | 16.1 | 32.2 | 0.00 | 0.00 | 0.00 | 34 | 1024.5 |
| 20260510213046 | 20 | 346 | 19.3 | 32.2 | 0.00 | 0.00 | 0.00 | 32 | 1024.5 |
| 20260510212524 | 20 | 334 | 17.7 | 30.6 | 0.00 | 0.00 | 0.00 | 32 | 1024.6 |
| 20260510212024 | 20 | 285 | 12.9 | 37.0 | 0.00 | 0.00 | 0.00 | 34 | 1024.4 |
| 20260510211537 | 20 | 22 | 14.5 | 37.0 | 0.00 | 0.00 | 0.00 | 33 | 1024.5 |
| 20260510211024 | 20 | 54 | 16.1 | 37.0 | 0.00 | 0.00 | 0.00 | 34 | 1024.4 |
| 20260510210521 | 20 | 351 | 17.7 | 33.8 | 0.00 | 0.00 | 0.00 | 36 | 1024.4 |
| 20260510210035 | 19 | 351 | 16.1 | 33.8 | 0.00 | 0.00 | 0.00 | 37 | 1024.5 |
| 20260510205522 | 18 | 319 | 12.9 | 22.5 | 0.00 | 0.00 | 0.00 | 35 | 1024.7 |
| 20260510205022 | 18 | 20 | 11.3 | 27.4 | 0.00 | 0.00 | 0.00 | 39 | 1025.0 |
| 20260510204546 | 17 | 313 | 11.3 | 30.6 | 0.00 | 0.00 | 0.00 | 42 | 1025.0 |
| 20260510204020 | 17 | 312 | 12.9 | 30.6 | 0.00 | 0.00 | 0.00 | 42 | 1025.2 |
| 20260510203520 | 17 | 5 | 16.1 | 29.0 | 0.00 | 0.00 | 0.00 | 42 | 1025.2 |
| 20260510203036 | 16 | 317 | 12.9 | 27.4 | 0.00 | 0.00 | 0.00 | 43 | 1025.4 |
| 20260510202523 | 16 | 318 | 12.9 | 27.4 | 0.00 | 0.00 | 0.00 | 44 | 1025.7 |
| 20260510202027 | 17 | 350 | 12.9 | 29.0 | 0.00 | 0.00 | 0.00 | 45 | 1025.5 |
| 20260510201535 | 17 | 5 | 16.1 | 32.2 | 0.00 | 0.00 | 0.00 | 44 | 1025.5 |
| 20260510201027 | 17 | 5 | 14.5 | 32.2 | 0.00 | 0.00 | 0.00 | 43 | 1025.4 |
| 20260510200522 | 17 | 331 | 14.5 | 30.6 | 0.00 | 0.00 | 0.00 | 40 | 1025.1 |
| 20260510200037 | 18 | 5 | 17.7 | 30.6 | 0.00 | 0.00 | 0.00 | 39 | 1024.9 |
| 20260510195523 | 18 | 360 | 17.7 | 32.2 | 0.00 | 0.00 | 0.00 | 38 | 1024.7 |
| 20260510195024 | 19 | 319 | 16.1 | 32.2 | 0.00 | 0.00 | 0.00 | 36 | 1024.6 |
| 20260510194542 | 21 | 5 | 14.5 | 37.0 | 0.00 | 0.00 | 0.00 | 33 | 1024.4 |
| 20260510194022 | 22 | 351 | 16.1 | 37.0 | 0.00 | 0.00 | 0.00 | 27 | 1024.4 |
| 20260510193522 | 23 | 55 | 14.5 | 37.0 | 0.00 | 0.00 | 0.00 | 23 | 1024.4 |
| 20260510193044 | 23 | 56 | 12.9 | 37.0 | 0.00 | 0.00 | 0.00 | 24 | 1024.4 |
| 20260510192522 | 23 | 91 | 11.3 | 22.5 | 0.00 | 0.00 | 0.00 | 21 | 1024.3 |
| 20260510192021 | 23 | 96 | 8.0 | 22.5 | 0.00 | 0.00 | 0.00 | 19 | 1024.4 |
| 20260510191538 | 23 | 86 | 9.7 | 22.5 | 0.00 | 0.00 | 0.00 | 20 | 1024.6 |
| 20260510191024 | 23 | 40 | 3.2 | 12.9 | 0.00 | 0.00 | 0.00 | 21 | 1024.6 |
| 20260510190521 | 23 | 164 | 3.2 | 27.4 | 0.00 | 0.00 | 0.00 | 20 | 1024.5 |
| 20260510190039 | 23 | 22 | 9.7 | 27.4 | 0.00 | 0.00 | 0.00 | 21 | 1024.8 |
| 20260510185524 | 22 | 57 | 11.3 | 25.7 | 0.00 | 0.00 | 0.00 | 21 | 1024.9 |
| 20260510185022 | 22 | 44 | 12.9 | 25.7 | 0.00 | 0.00 | 0.00 | 23 | 1024.9 |
| 20260510184536 | 22 | 78 | 11.3 | 20.9 | 0.00 | 0.00 | 0.00 | 23 | 1024.8 |
| 20260510184023 | 22 | 109 | 6.4 | 17.7 | 0.00 | 0.00 | 0.00 | 23 | 1024.7 |
| 20260510183525 | 22 | 0 | 8.0 | 17.7 | 0.00 | 0.00 | 0.00 | 24 | 1024.9 |
| 20260510183035 | 23 | 134 | 9.7 | 22.5 | 0.00 | 0.00 | 0.00 | 21 | 1024.9 |
| 20260510182520 | 23 | 14 | 9.7 | 33.8 | 0.00 | 0.00 | 0.00 | 22 | 1025.0 |
| 20260510182024 | 23 | 86 | 6.4 | 35.4 | 0.00 | 0.00 | 0.00 | 24 | 1024.9 |
| 20260510181538 | 22 | 51 | 12.9 | 35.4 | 0.00 | 0.00 | 0.00 | 25 | 1024.9 |
| 20260510181021 | 22 | 0 | 1.6 | 19.3 | 0.00 | 0.00 | 0.00 | 25 | 1024.9 |
| 20260510180521 | 21 | 35 | 4.8 | 24.1 | 0.00 | 0.00 | 0.00 | 26 | 1024.9 |
| 20260510180042 | 22 | 22 | 6.4 | 24.1 | 0.00 | 0.00 | 0.00 | 25 | 1024.9 |
| 20260510175524 | 22 | 80 | 6.4 | 24.1 | 0.00 | 0.00 | 0.00 | 26 | 1024.9 |
| 20260510175026 | 22 | 137 | 9.7 | 24.1 | 0.00 | 0.00 | 0.00 | 25 | 1024.9 |
| 20260510174537 | 21 | 57 | 3.2 | 24.1 | 0.00 | 0.00 | 0.00 | 26 | 1025.1 |
| 20260510174021 | 21 | 29 | 11.3 | 24.1 | 0.00 | 0.00 | 0.00 | 25 | 1025.2 |
| 20260510173522 | 22 | 102 | 8.0 | 22.5 | 0.00 | 0.00 | 0.00 | 26 | 1025.1 |
| 20260510173036 | 22 | 78 | 6.4 | 22.5 | 0.00 | 0.00 | 0.00 | 26 | 1025.1 |
| 20260510172524 | 21 | 69 | 8.0 | 20.9 | 0.00 | 0.00 | 0.00 | 27 | 1025.2 |
| 20260510172024 | 22 | 132 | 4.8 | 27.4 | 0.00 | 0.00 | 0.00 | 27 | 1025.2 |
| 20260510171536 | 21 | 87 | 9.7 | 27.4 | 0.00 | 0.00 | 0.00 | 27 | 1025.2 |
| 20260510171022 | 21 | 0 | 1.6 | 22.5 | 0.00 | 0.00 | 0.00 | 28 | 1025.2 |
| 20260510170526 | 21 | 76 | 11.3 | 25.7 | 0.00 | 0.00 | 0.00 | 27 | 1025.3 |
| 20260510170043 | 21 | 179 | 11.3 | 25.7 | 0.00 | 0.00 | 0.00 | 28 | 1025.2 |
| 20260510165524 | 21 | 51 | 9.7 | 27.4 | 0.00 | 0.00 | 0.00 | 28 | 1025.1 |
| 20260510165024 | 21 | 108 | 12.9 | 27.4 | 0.00 | 0.00 | 0.00 | 28 | 1025.0 |
| 20260510164548 | 21 | 88 | 8.0 | 22.5 | 0.00 | 0.00 | 0.00 | 27 | 1025.1 |
| 20260510164024 | 21 | 64 | 6.4 | 20.9 | 0.00 | 0.00 | 0.00 | 27 | 1024.9 |
| 20260510163521 | 21 | 73 | 8.0 | 25.7 | 0.00 | 0.00 | 0.00 | 29 | 1024.9 |
| 20260510163038 | 21 | 59 | 4.8 | 25.7 | 0.00 | 0.00 | 0.00 | 27 | 1024.9 |
| 20260510162524 | 21 | 55 | 9.7 | 30.6 | 0.00 | 0.00 | 0.00 | 28 | 1024.9 |
| 20260510162021 | 21 | 65 | 12.9 | 30.6 | 0.00 | 0.00 | 0.00 | 29 | 1024.9 |
| 20260510161538 | 20 | 61 | 6.4 | 25.7 | 0.00 | 0.00 | 0.00 | 31 | 1024.8 |
| 20260510161023 | 20 | 31 | 12.9 | 25.7 | 0.00 | 0.00 | 0.00 | 29 | 1024.8 |
| 20260510160521 | 20 | 17 | 8.0 | 27.4 | 0.00 | 0.00 | 0.00 | 30 | 1024.7 |
| 20260510160037 | 20 | 9 | 12.9 | 27.4 | 0.00 | 0.00 | 0.00 | 29 | 1024.7 |
| 20260510155523 | 20 | 108 | 4.8 | 17.7 | 0.00 | 0.00 | 0.00 | 29 | 1024.6 |
| 20260510155023 | 20 | 67 | 6.4 | 17.7 | 0.00 | 0.00 | 0.00 | 29 | 1024.6 |
| 20260510154546 | 19 | 44 | 4.8 | 20.9 | 0.00 | 0.00 | 0.00 | 29 | 1024.6 |
| 20260510154028 | 19 | 10 | 4.8 | 20.9 | 0.00 | 0.00 | 0.00 | 30 | 1024.6 |
| 20260510153522 | 18 | 349 | 8.0 | 22.5 | 0.00 | 0.00 | 0.00 | 30 | 1024.6 |
| 20260510153034 | 18 | 50 | 8.0 | 22.5 | 0.00 | 0.00 | 0.00 | 31 | 1024.5 |
| 20260510152527 | 18 | 26 | 8.0 | 20.9 | 0.00 | 0.00 | 0.00 | 31 | 1024.4 |
| 20260510152025 | 18 | 66 | 8.0 | 20.9 | 0.00 | 0.00 | 0.00 | 31 | 1024.5 |
| 20260510151542 | 18 | 5 | 4.8 | 19.3 | 0.00 | 0.00 | 0.00 | 31 | 1024.3 |
| 20260510151025 | 18 | 5 | 9.7 | 20.9 | 0.00 | 0.00 | 0.00 | 31 | 1024.3 |
| 20260510150528 | 18 | 341 | 11.3 | 20.9 | 0.00 | 0.00 | 0.00 | 32 | 1024.3 |
| 20260510150043 | 17 | 61 | 11.3 | 22.5 | 0.00 | 0.00 | 0.00 | 32 | 1024.3 |
| 20260510145526 | 17 | 34 | 11.3 | 24.1 | 0.00 | 0.00 | 0.00 | 32 | 1024.2 |
| 20260510145026 | 17 | 22 | 14.5 | 29.0 | 0.00 | 0.00 | 0.00 | 32 | 1024.3 |
| 20260510144550 | 17 | 10 | 12.9 | 29.0 | 0.00 | 0.00 | 0.00 | 32 | 1024.3 |
| 20260510144027 | 17 | 360 | 9.7 | 29.0 | 0.00 | 0.00 | 0.00 | 32 | 1024.2 |
| 20260510143524 | 17 | 5 | 12.9 | 25.7 | 0.00 | 0.00 | 0.00 | 31 | 1024.3 |
| 20260510143051 | 17 | 338 | 6.4 | 20.9 | 0.00 | 0.00 | 0.00 | 32 | 1024.1 |
| 20260510142525 | 17 | 50 | 9.7 | 20.9 | 0.00 | 0.00 | 0.00 | 33 | 1024.1 |
| 20260510142026 | 17 | 65 | 8.0 | 17.7 | 0.00 | 0.00 | 0.00 | 33 | 1024.1 |
| 20260510141535 | 16 | 11 | 11.3 | 17.7 | 0.00 | 0.00 | 0.00 | 33 | 1024.0 |
| 20260510141025 | 16 | 46 | 8.0 | 17.7 | 0.00 | 0.00 | 0.00 | 34 | 1023.9 |
| 20260510140525 | 16 | 350 | 8.0 | 16.1 | 0.00 | 0.00 | 0.00 | 35 | 1023.8 |
| 20260510140045 | 15 | 5 | 6.4 | 16.1 | 0.00 | 0.00 | 0.00 | 35 | 1023.8 |
| 20260510135524 | 15 | 12 | 6.4 | 17.7 | 0.00 | 0.00 | 0.00 | 36 | 1023.7 |
| 20260510135025 | 15 | 23 | 8.0 | 17.7 | 0.00 | 0.00 | 0.00 | 37 | 1023.7 |
| 20260510134539 | 15 | 31 | 6.4 | 14.5 | 0.00 | 0.00 | 0.00 | 37 | 1023.7 |
| 20260510134024 | 14 | 11 | 4.8 | 19.3 | 0.00 | 0.00 | 0.00 | 37 | 1023.7 |
| 20260510133523 | 14 | 328 | 8.0 | 19.3 | 0.00 | 0.00 | 0.00 | 37 | 1023.7 |
| 20260510133038 | 13 | 333 | 4.8 | 14.5 | 0.00 | 0.00 | 0.00 | 38 | 1023.6 |
| 20260510132524 | 13 | 350 | 6.4 | 14.5 | 0.00 | 0.00 | 0.00 | 38 | 1023.6 |
| 20260510132026 | 13 | 5 | 6.4 | 19.3 | 0.00 | 0.00 | 0.00 | 38 | 1023.4 |
| 20260510131545 | 13 | 9 | 4.8 | 19.3 | 0.00 | 0.00 | 0.00 | 38 | 1023.2 |
| 20260510131029 | 13 | 352 | 6.4 | 19.3 | 0.00 | 0.00 | 0.00 | 38 | 1023.2 |
| 20260510130525 | 13 | 13 | 4.8 | 14.5 | 0.00 | 0.00 | 0.00 | 38 | 1023.1 |
| 20260510130038 | 13 | 28 | 3.2 | 14.5 | 0.00 | 0.00 | 0.00 | 38 | 1023.1 |
| 20260510125527 | 13 | 5 | 4.8 | 16.1 | 0.00 | 0.00 | 0.00 | 38 | 1022.9 |
| 20260510125026 | 13 | 352 | 4.8 | 16.1 | 0.00 | 0.00 | 0.00 | 37 | 1022.8 |
| 20260510124539 | 13 | 5 | 8.0 | 16.1 | 0.00 | 0.00 | 0.00 | 37 | 1022.8 |
| 20260510124025 | 13 | 349 | 4.8 | 20.9 | 0.00 | 0.00 | 0.00 | 37 | 1022.7 |
| 20260510123526 | 13 | 319 | 8.0 | 20.9 | 0.00 | 0.00 | 0.00 | 37 | 1022.7 |
| 20260510123046 | 13 | 333 | 6.4 | 19.3 | 0.00 | 0.00 | 0.00 | 37 | 1022.7 |
| 20260510122525 | 13 | 333 | 8.0 | 19.3 | 0.00 | 0.00 | 0.00 | 37 | 1022.8 |
| 20260510122025 | 14 | 314 | 8.0 | 16.1 | 0.00 | 0.00 | 0.00 | 36 | 1022.7 |
| 20260510121540 | 14 | 345 | 6.4 | 22.5 | 0.00 | 0.00 | 0.00 | 36 | 1022.5 |
| 20260510121028 | 14 | 13 | 6.4 | 22.5 | 0.00 | 0.00 | 0.00 | 35 | 1022.6 |
| 20260510120525 | 14 | 350 | 8.0 | 20.9 | 0.00 | 0.00 | 0.00 | 35 | 1022.5 |
| 20260510120042 | 15 | 360 | 6.4 | 20.9 | 0.00 | 0.00 | 0.00 | 35 | 1022.3 |
| 20260510115527 | 15 | 352 | 4.8 | 17.7 | 0.00 | 0.00 | 0.00 | 34 | 1022.4 |
| 20260510115023 | 15 | 348 | 6.4 | 16.1 | 0.00 | 0.00 | 0.00 | 33 | 1022.5 |
| 20260510114543 | 15 | 343 | 4.8 | 16.1 | 0.00 | 0.00 | 0.00 | 32 | 1022.5 |
| 20260510114029 | 15 | 5 | 6.4 | 14.5 | 0.00 | 0.00 | 0.00 | 32 | 1022.4 |
| 20260510113525 | 15 | 9 | 3.2 | 17.7 | 0.00 | 0.00 | 0.00 | 31 | 1022.3 |
| 20260510113036 | 15 | 360 | 6.4 | 22.5 | 0.00 | 0.00 | 0.00 | 31 | 1022.2 |
| 20260510112529 | 15 | 328 | 11.3 | 22.5 | 0.00 | 0.00 | 0.00 | 31 | 1022.0 |
| 20260510112025 | 15 | 352 | 4.8 | 25.7 | 0.00 | 0.00 | 0.00 | 30 | 1022.0 |
| 20260510111534 | 15 | 41 | 11.3 | 29.0 | 0.00 | 0.00 | 0.00 | 30 | 1022.0 |
| 20260510111024 | 16 | 347 | 14.5 | 29.0 | 0.00 | 0.00 | 0.00 | 30 | 1022.1 |
| 20260510110524 | 16 | 56 | 6.4 | 16.1 | 0.00 | 0.00 | 0.00 | 28 | 1022.0 |
| 20260510110035 | 16 | 9 | 4.8 | 16.1 | 0.00 | 0.00 | 0.00 | 27 | 1022.0 |
| 20260510105525 | 16 | 9 | 8.0 | 16.1 | 0.00 | 0.00 | 0.00 | 27 | 1021.9 |
| 20260510105025 | 16 | 348 | 4.8 | 17.7 | 0.00 | 0.00 | 0.00 | 27 | 1021.9 |
| 20260510104540 | 16 | 309 | 6.4 | 25.7 | 0.00 | 0.00 | 0.00 | 28 | 1021.9 |
| 20260510104025 | 15 | 296 | 8.0 | 25.7 | 0.00 | 0.00 | 0.00 | 29 | 1021.9 |
| 20260510103524 | 15 | 316 | 9.7 | 19.3 | 0.00 | 0.00 | 0.00 | 29 | 1022.2 |
| 20260510103039 | 15 | 53 | 4.8 | 19.3 | 0.00 | 0.00 | 0.00 | 28 | 1022.4 |
| 20260510102528 | 15 | 360 | 9.7 | 19.3 | 0.00 | 0.00 | 0.00 | 28 | 1022.0 |
| 20260510102028 | 13 | 24 | 9.7 | 19.3 | 0.00 | 0.00 | 0.00 | 31 | 1022.0 |
| 20260510101538 | 13 | 346 | 3.2 | 8.0 | 0.00 | 0.00 | 0.00 | 33 | 1021.9 |
| 20260510101025 | 12 | 280 | 0.0 | 3.2 | 0.00 | 0.00 | 0.00 | 34 | 1021.8 |
| 20260510100525 | 12 | 0 | 1.6 | 3.2 | 0.00 | 0.00 | 0.00 | 34 | 1021.7 |
| 20260510100036 | 13 | 278 | 0.0 | 3.2 | 0.00 | 0.00 | 0.00 | 35 | 1021.7 |
| 20260510095525 | 13 | 0 | 0.0 | 4.8 | 0.00 | 0.00 | 0.00 | 35 | 1021.6 |
| 20260510095026 | 13 | 0 | 1.6 | 4.8 | 0.00 | 0.00 | 0.00 | 34 | 1021.6 |
| 20260510094537 | 13 | 278 | 0.0 | 4.8 | 0.00 | 0.00 | 0.00 | 34 | 1021.5 |
| 20260510094025 | 13 | 0 | 1.6 | 4.8 | 0.00 | 0.00 | 0.00 | 34 | 1021.4 |
| 20260510093526 | 13 | 278 | 0.0 | 3.2 | 0.00 | 0.00 | 0.00 | 34 | 1021.3 |
| 20260510093045 | 13 | 278 | 0.0 | 3.2 | 0.00 | 0.00 | 0.00 | 33 | 1021.3 |
| 20260510092526 | 13 | 0 | 0.0 | 0.0 | 0.00 | 0.00 | 0.00 | 32 | 1021.3 |
| 20260510092025 | 13 | 0 | 0.0 | 0.0 | 0.00 | 0.00 | 0.00 | 32 | 1021.1 |
| 20260510091543 | 13 | 0 | 0.0 | 3.2 | 0.00 | 0.00 | 0.00 | 32 | 1021.0 |
| 20260510091025 | 13 | 0 | 0.0 | 4.8 | 0.00 | 0.00 | 0.00 | 32 | 1020.9 |
| 20260510090526 | 13 | 0 | 1.6 | 4.8 | 0.00 | 0.00 | 0.00 | 32 | 1020.7 |
| 20260510090040 | 13 | 277 | 1.6 | 4.8 | 0.00 | 0.00 | 0.00 | 32 | 1020.6 |
| 20260510085524 | 13 | 0 | 0.0 | 1.6 | 0.00 | 0.00 | 0.00 | 32 | 1020.5 |
| 20260510085024 | 13 | 0 | 0.0 | 1.6 | 0.00 | 0.00 | 0.00 | 31 | 1020.5 |
| 20260510084541 | 13 | 0 | 0.0 | 4.8 | 0.00 | 0.00 | 0.00 | 31 | 1020.5 |
| 20260510084025 | 13 | 0 | 1.6 | 4.8 | 0.00 | 0.00 | 0.00 | 31 | 1020.5 |
| 20260510083525 | 13 | 277 | 1.6 | 6.4 | 0.00 | 0.00 | 0.00 | 31 | 1020.4 |
| 20260510083036 | 13 | 277 | 1.6 | 6.4 | 0.00 | 0.00 | 0.00 | 30 | 1020.4 |
| 20260510082525 | 13 | 276 | 1.6 | 6.4 | 0.00 | 0.00 | 0.00 | 30 | 1020.4 |
| 20260510082025 | 13 | 271 | 0.0 | 4.8 | 0.00 | 0.00 | 0.00 | 30 | 1020.4 |
| 20260510081535 | 13 | 0 | 1.6 | 4.8 | 0.00 | 0.00 | 0.00 | 30 | 1020.4 |
| 20260510081025 | 14 | 269 | 1.6 | 4.8 | 0.00 | 0.00 | 0.00 | 30 | 1020.3 |
| 20260510080524 | 14 | 269 | 1.6 | 9.7 | 0.00 | 0.00 | 0.00 | 30 | 1020.3 |
| 20260510080036 | 13 | 269 | 1.6 | 9.7 | 0.00 | 0.00 | 0.00 | 30 | 1020.3 |
| 20260510075524 | 13 | 269 | 3.2 | 9.7 | 0.00 | 0.00 | 0.00 | 30 | 1020.4 |
| 20260510075024 | 13 | 273 | 1.6 | 11.3 | 0.00 | 0.00 | 0.00 | 31 | 1020.4 |
| 20260510074547 | 13 | 271 | 1.6 | 11.3 | 0.00 | 0.00 | 0.00 | 31 | 1020.4 |
| 20260510074025 | 13 | 278 | 3.2 | 9.7 | 0.00 | 0.00 | 0.00 | 32 | 1020.4 |
| 20260510073528 | 13 | 291 | 1.6 | 6.4 | 0.00 | 0.00 | 0.00 | 32 | 1020.3 |
| 20260510073058 | 13 | 292 | 1.6 | 3.2 | 0.00 | 0.00 | 0.00 | 31 | 1020.4 |
| 20260510072524 | 13 | 0 | 0.0 | 3.2 | 0.00 | 0.00 | 0.00 | 30 | 1020.4 |
| 20260510072025 | 14 | 0 | 0.0 | 3.2 | 0.00 | 0.00 | 0.00 | 30 | 1020.4 |
| 20260510071538 | 14 | 0 | 0.0 | 4.8 | 0.00 | 0.00 | 0.00 | 29 | 1020.5 |
| 20260510071024 | 15 | 292 | 0.0 | 8.0 | 0.00 | 0.00 | 0.00 | 29 | 1020.4 |
| 20260510070524 | 15 | 0 | 1.6 | 8.0 | 0.00 | 0.00 | 0.00 | 28 | 1020.4 |
| 20260510070037 | 15 | 290 | 4.8 | 8.0 | 0.00 | 0.00 | 0.00 | 28 | 1020.3 |
| 20260510065524 | 15 | 299 | 3.2 | 11.3 | 0.00 | 0.00 | 0.00 | 28 | 1020.4 |
| 20260510065025 | 15 | 299 | 3.2 | 11.3 | 0.00 | 0.00 | 0.00 | 28 | 1020.4 |
| 20260510064548 | 15 | 298 | 4.8 | 11.3 | 0.00 | 0.00 | 0.00 | 28 | 1020.3 |
| 20260510064024 | 15 | 296 | 3.2 | 6.4 | 0.00 | 0.00 | 0.00 | 28 | 1020.3 |
| 20260510063525 | 15 | 0 | 1.6 | 4.8 | 0.00 | 0.00 | 0.00 | 27 | 1020.4 |
| 20260510063035 | 15 | 293 | 1.6 | 6.4 | 0.00 | 0.00 | 0.00 | 27 | 1020.3 |
| 20260510062525 | 15 | 292 | 3.2 | 6.4 | 0.00 | 0.00 | 0.00 | 27 | 1020.2 |
| 20260510062024 | 15 | 292 | 1.6 | 4.8 | 0.00 | 0.00 | 0.00 | 27 | 1020.2 |
| 20260510061542 | 15 | 292 | 0.0 | 6.4 | 0.00 | 0.00 | 0.00 | 26 | 1020.2 |
| 20260510061025 | 15 | 292 | 3.2 | 6.4 | 0.00 | 0.00 | 0.00 | 26 | 1020.2 |
| 20260510060526 | 16 | 292 | 3.2 | 6.4 | 0.00 | 0.00 | 0.00 | 25 | 1020.0 |
| 20260510060038 | 16 | 290 | 1.6 | 6.4 | 0.00 | 0.00 | 0.00 | 24 | 1020.0 |
| 20260510055525 | 16 | 290 | 1.6 | 8.0 | 0.00 | 0.00 | 0.00 | 24 | 1020.1 |
| 20260510055025 | 16 | 291 | 3.2 | 8.0 | 0.00 | 0.00 | 0.00 | 24 | 1020.0 |
| 20260510054543 | 16 | 287 | 3.2 | 6.4 | 0.00 | 0.00 | 0.00 | 24 | 1020.0 |
| 20260510054023 | 16 | 278 | 1.6 | 6.4 | 0.00 | 0.00 | 0.00 | 24 | 1020.0 |
| 20260510053527 | 17 | 277 | 0.0 | 6.4 | 0.00 | 0.00 | 0.00 | 23 | 1020.0 |
| 20260510053043 | 17 | 277 | 1.6 | 9.7 | 0.00 | 0.00 | 0.00 | 23 | 1020.0 |
| 20260510052525 | 17 | 279 | 3.2 | 12.9 | 0.00 | 0.00 | 0.00 | 23 | 1019.9 |
| 20260510052025 | 17 | 275 | 3.2 | 12.9 | 0.00 | 0.00 | 0.00 | 22 | 1020.0 |
| 20260510051547 | 17 | 239 | 1.6 | 6.4 | 0.00 | 0.00 | 0.00 | 22 | 1019.9 |
| 20260510051029 | 17 | 282 | 1.6 | 9.7 | 0.00 | 0.00 | 0.00 | 22 | 1019.8 |
| 20260510050523 | 17 | 282 | 1.6 | 11.3 | 0.00 | 0.00 | 0.00 | 22 | 1019.8 |
| 20260510050036 | 17 | 285 | 3.2 | 11.3 | 0.00 | 0.00 | 0.00 | 21 | 1019.7 |
| 20260510045526 | 17 | 292 | 4.8 | 11.3 | 0.00 | 0.00 | 0.00 | 21 | 1019.7 |
| 20260510045028 | 17 | 277 | 1.6 | 9.7 | 0.00 | 0.00 | 0.00 | 21 | 1019.6 |
| 20260510044540 | 17 | 269 | 3.2 | 11.3 | 0.00 | 0.00 | 0.00 | 21 | 1019.7 |
| 20260510044024 | 17 | 282 | 3.2 | 11.3 | 0.00 | 0.00 | 0.00 | 21 | 1019.8 |
| 20260510043523 | 17 | 283 | 4.8 | 11.3 | 0.00 | 0.00 | 0.00 | 21 | 1019.8 |
| 20260510043041 | 17 | 291 | 1.6 | 4.8 | 0.00 | 0.00 | 0.00 | 22 | 1019.7 |
| 20260510042527 | 17 | 292 | 1.6 | 4.8 | 0.00 | 0.00 | 0.00 | 21 | 1019.7 |
| 20260510042026 | 17 | 292 | 1.6 | 4.8 | 0.00 | 0.00 | 0.00 | 20 | 1019.7 |
| 20260510041541 | 17 | 0 | 0.0 | 6.4 | 0.00 | 0.00 | 0.00 | 19 | 1019.6 |
| 20260510041025 | 17 | 0 | 0.0 | 6.4 | 0.00 | 0.00 | 0.00 | 19 | 1019.6 |
| 20260510040524 | 17 | 292 | 1.6 | 6.4 | 0.00 | 0.00 | 0.00 | 18 | 1019.5 |
| 20260510040045 | 18 | 0 | 1.6 | 6.4 | 0.00 | 0.00 | 0.00 | 18 | 1019.5 |
| 20260510035525 | 18 | 288 | 0.0 | 6.4 | 0.00 | 0.00 | 0.00 | 18 | 1019.4 |
| 20260510035025 | 18 | 290 | 3.2 | 11.3 | 0.00 | 0.00 | 0.00 | 17 | 1019.3 |
| 20260510034544 | 18 | 285 | 3.2 | 11.3 | 0.00 | 0.00 | 0.00 | 17 | 1019.4 |
| 20260510034023 | 18 | 229 | 3.2 | 11.3 | 0.00 | 0.00 | 0.00 | 16 | 1019.4 |
| 20260510033527 | 19 | 237 | 3.2 | 11.3 | 0.00 | 0.00 | 0.00 | 16 | 1019.3 |
| 20260510033035 | 19 | 243 | 4.8 | 11.3 | 0.00 | 0.00 | 0.00 | 16 | 1019.2 |
| 20260510032522 | 19 | 248 | 1.6 | 8.0 | 0.00 | 0.00 | 0.00 | 16 | 1019.0 |
| 20260510032024 | 19 | 242 | 3.2 | 8.0 | 0.00 | 0.00 | 0.00 | 16 | 1018.9 |
| 20260510031539 | 20 | 219 | 1.6 | 8.0 | 0.00 | 0.00 | 0.00 | 16 | 1018.9 |
| 20260510031025 | 20 | 0 | 0.0 | 3.2 | 0.00 | 0.00 | 0.00 | 16 | 1018.8 |
| 20260510030522 | 20 | 0 | 0.0 | 3.2 | 0.00 | 0.00 | 0.00 | 16 | 1018.7 |
| 20260510030038 | 20 | 0 | 0.0 | 9.7 | 0.00 | 0.00 | 0.00 | 15 | 1018.6 |
| 20260510025524 | 21 | 0 | 0.0 | 9.7 | 0.00 | 0.00 | 0.00 | 15 | 1018.5 |
| 20260510025025 | 21 | 206 | 3.2 | 12.9 | 0.00 | 0.00 | 0.00 | 15 | 1018.4 |
| 20260510024539 | 21 | 200 | 3.2 | 14.5 | 0.00 | 0.00 | 0.00 | 15 | 1018.4 |
| 20260510024024 | 21 | 198 | 4.8 | 16.1 | 0.00 | 0.00 | 0.00 | 14 | 1018.3 |
| 20260510023524 | 21 | 190 | 6.4 | 16.1 | 0.00 | 0.00 | 0.00 | 14 | 1018.2 |
| 20260510023037 | 21 | 193 | 8.0 | 17.7 | 0.00 | 0.00 | 0.00 | 14 | 1018.2 |
| 20260510022523 | 21 | 196 | 8.0 | 17.7 | 0.00 | 0.00 | 0.00 | 14 | 1018.2 |
| 20260510022024 | 21 | 191 | 6.4 | 16.1 | 0.00 | 0.00 | 0.00 | 14 | 1018.1 |
| 20260510021536 | 21 | 167 | 6.4 | 16.1 | 0.00 | 0.00 | 0.00 | 13 | 1018.1 |
| 20260510021023 | 22 | 159 | 6.4 | 19.3 | 0.00 | 0.00 | 0.00 | 13 | 1018.1 |
| 20260510020525 | 22 | 197 | 8.0 | 22.5 | 0.00 | 0.00 | 0.00 | 13 | 1018.0 |
| 20260510020035 | 22 | 186 | 11.3 | 22.5 | 0.00 | 0.00 | 0.00 | 13 | 1017.9 |
| 20260510015527 | 22 | 202 | 6.4 | 30.6 | 0.00 | 0.00 | 0.00 | 13 | 1017.9 |
| 20260510015025 | 22 | 108 | 12.9 | 30.6 | 0.00 | 0.00 | 0.00 | 13 | 1017.9 |
| 20260510014543 | 22 | 152 | 16.1 | 40.2 | 0.00 | 0.00 | 0.00 | 12 | 1017.8 |
| 20260510014024 | 23 | 144 | 17.7 | 40.2 | 0.00 | 0.00 | 0.00 | 12 | 1017.7 |
| 20260510013528 | 23 | 165 | 9.7 | 29.0 | 0.00 | 0.00 | 0.00 | 12 | 1017.7 |
| 20260510013039 | 23 | 138 | 9.7 | 40.2 | 0.00 | 0.00 | 0.00 | 12 | 1017.7 |
| 20260510012524 | 23 | 165 | 16.1 | 40.2 | 0.00 | 0.00 | 0.00 | 12 | 1017.6 |
| 20260510012028 | 23 | 164 | 12.9 | 29.0 | 0.00 | 0.00 | 0.00 | 12 | 1017.5 |
| 20260510011539 | 23 | 155 | 11.3 | 29.0 | 0.00 | 0.00 | 0.00 | 12 | 1017.5 |
| 20260510011022 | 23 | 177 | 12.9 | 25.7 | 0.00 | 0.00 | 0.00 | 11 | 1017.4 |
| 20260510010524 | 23 | 171 | 6.4 | 29.0 | 0.00 | 0.00 | 0.00 | 12 | 1017.4 |
| 20260510010044 | 23 | 149 | 9.7 | 32.2 | 0.00 | 0.00 | 0.00 | 11 | 1017.4 |
| 20260510005524 | 23 | 167 | 12.9 | 32.2 | 0.00 | 0.00 | 0.00 | 11 | 1017.4 |
| 20260510005024 | 23 | 192 | 12.9 | 32.2 | 0.00 | 0.00 | 0.00 | 12 | 1017.4 |
| 20260510004536 | 23 | 184 | 14.5 | 32.2 | 0.00 | 0.00 | 0.00 | 11 | 1017.3 |
| 20260510004025 | 24 | 184 | 16.1 | 33.8 | 0.00 | 0.00 | 0.00 | 11 | 1017.4 |
| 20260510003524 | 24 | 157 | 14.5 | 33.8 | 0.00 | 0.00 | 0.00 | 11 | 1017.3 |
| 20260510003055 | 24 | 128 | 12.9 | 27.4 | 0.00 | 0.00 | 0.00 | 11 | 1017.2 |
| 20260510002524 | 24 | 169 | 12.9 | 29.0 | 0.00 | 0.00 | 0.00 | 11 | 1017.3 |
| 20260510002022 | 24 | 169 | 12.9 | 29.0 | 0.00 | 0.00 | 0.00 | 12 | 1017.2 |
| 20260510001542 | 24 | 172 | 11.3 | 25.7 | 0.00 | 0.00 | 0.00 | 12 | 1017.3 |
| 20260510001025 | 24 | 173 | 12.9 | 25.7 | 0.00 | 0.00 | 0.00 | 11 | 1017.2 |
| 20260510000525 | 24 | 165 | 14.5 | 29.0 | 0.00 | 0.00 | 0.00 | 11 | 1017.2 |
| 20260510000046 | 24 | 159 | 12.9 | 32.2 | 0.00 | 0.00 | 0.00 | 11 | 1017.1 |
| 20260509235524 | 24 | 170 | 17.7 | 32.2 | 0.00 | 0.00 | 0.00 | 11 | 1017.2 |
| 20260509235024 | 25 | 188 | 14.5 | 43.5 | 0.00 | 0.00 | 0.00 | 11 | 1017.2 |
| 20260509234539 | 25 | 180 | 19.3 | 43.5 | 0.00 | 0.00 | 0.00 | 10 | 1017.2 |
| 20260509234025 | 25 | 180 | 12.9 | 33.8 | 0.00 | 0.00 | 0.00 | 11 | 1017.1 |
| 20260509233523 | 25 | 181 | 14.5 | 33.8 | 0.00 | 0.00 | 0.00 | 11 | 1017.1 |
| 20260509233035 | 25 | 131 | 12.9 | 27.4 | 0.00 | 0.00 | 0.00 | 12 | 1017.0 |
| 20260509232522 | 25 | 187 | 11.3 | 33.8 | 0.00 | 0.00 | 0.00 | 11 | 1017.2 |
| 20260509232024 | 25 | 172 | 11.3 | 33.8 | 0.00 | 0.00 | 0.00 | 11 | 1017.2 |
| 20260509231536 | 25 | 190 | 8.0 | 24.1 | 0.00 | 0.00 | 0.00 | 11 | 1017.1 |
| 20260509231023 | 25 | 187 | 4.8 | 30.6 | 0.00 | 0.00 | 0.00 | 11 | 1017.1 |
| 20260509230524 | 25 | 180 | 14.5 | 41.8 | 0.00 | 0.00 | 0.00 | 11 | 1017.2 |
| 20260509230035 | 25 | 136 | 19.3 | 41.8 | 0.00 | 0.00 | 0.00 | 11 | 1017.2 |
| 20260509225524 | 26 | 144 | 22.5 | 38.6 | 0.00 | 0.00 | 0.00 | 11 | 1017.1 |
| 20260509225023 | 26 | 129 | 14.5 | 32.2 | 0.00 | 0.00 | 0.00 | 10 | 1017.1 |
| 20260509224535 | 26 | 131 | 17.7 | 32.2 | 0.00 | 0.00 | 0.00 | 10 | 1017.0 |
| 20260509224024 | 26 | 115 | 12.9 | 35.4 | 0.00 | 0.00 | 0.00 | 11 | 1017.0 |
| 20260509223524 | 26 | 176 | 17.7 | 35.4 | 0.00 | 0.00 | 0.00 | 10 | 1017.1 |
| 20260509223034 | 25 | 119 | 9.7 | 32.2 | 0.00 | 0.00 | 0.00 | 11 | 1017.1 |
| 20260509222524 | 25 | 159 | 11.3 | 32.2 | 0.00 | 0.00 | 0.00 | 12 | 1017.2 |
| 20260509222023 | 24 | 184 | 8.0 | 30.6 | 0.00 | 0.00 | 0.00 | 12 | 1017.1 |
| 20260509221538 | 25 | 165 | 12.9 | 30.6 | 0.00 | 0.00 | 0.00 | 11 | 1017.3 |
| 20260509221025 | 25 | 173 | 14.5 | 30.6 | 0.00 | 0.00 | 0.00 | 12 | 1017.3 |